[ ตารางข้อมูล ] [ Min-Max ] [ วันนี้2 ] [ วันนี้4 ] [ เทียบ-A 3วัน ] [ เทียบ-B 4วัน ]   

วันนี้4   [ ◀ ช่วงเก่ากว่า ] [ ช่วงที่ 31 ] [ ช่วงใหม่กว่า ▶ ] [ ล่าสุด ]    [ 3 ชั่วโมง ] [ 6 ชั่วโมง ] [ 12 ชั่วโมง ] [ 24 ชั่วโมง ]   วันนี้4

อุณภูมิในตู้ Knockdown4529  ราย 24 ชั่วโมง  ที่วัดได้ ในช่วงวันเวลา 02/08/2026 (07:09) ถึง 03/08/2026 (07:09) 
ความชื้นในตู้ Knockdown4529  ราย 24 ชั่วโมง  ที่วัดได้ ในช่วงวันเวลา 02/08/2026 (07:09) ถึง 03/08/2026 (07:09) 
การใช้ไฟฟ้าในตู้ Knockdown4529  ราย 24 ชั่วโมง  ที่วัดได้ ในช่วงวันเวลา 02/08/2026 (07:09) ถึง 03/08/2026 (07:09) 

  DS18B20SHTC3PZEM-004TWiFi 
IDDate d/m/Y & Timedata1
สูง
data2
ต่ำ
data3
นอก
temp
pcb
hum
pcb
VoltAmpWattrssiTime
 9107  03/08/2026 07:08:58  28.4  28.4  26.5  29.4  67.9  232.0  0.04  4.4  -75  07:08 
 9106  03/08/2026 07:04:15  28.4  28.4  26.6  29.4  67.9  229.8  0.04  4.4  -78  07:04 
 9105  03/08/2026 06:59:32  28.4  28.4  26.7  29.4  67.9  232.3  0.04  4.4  -77  06:59 
 9104  03/08/2026 06:54:48  28.4  28.4  26.5  29.4  68.0  233.3  0.04  4.4  -77  06:54 
 9103  03/08/2026 06:50:05  28.4  28.4  26.5  29.3  68.0  232.2  0.04  4.4  -80  06:50 
 9102  03/08/2026 06:45:21  28.4  28.4  26.2  29.5  68.1  232.3  0.04  4.4  -75  06:45 
 9101  03/08/2026 06:40:37  28.4  28.4  26.1  29.4  68.0  232.5  0.04  4.4  -78  06:40 
 9100  03/08/2026 06:35:54  28.4  28.4  26.2  29.6  68.0  232.1  0.04  4.4  -78  06:35 
 9099  03/08/2026 06:31:10  28.4  28.5  26.1  29.2  68.1  229.1  0.04  4.4  -78  06:31 
 9098  03/08/2026 06:26:27  28.4  28.5  26.5  29.4  68.1  231.0  0.04  4.4  -80  06:26 
 9097  03/08/2026 06:21:43  28.4  28.5  26.5  29.4  68.2  230.3  0.04  4.4  -79  06:21 
 9096  03/08/2026 06:17:00  28.4  28.5  26.5  29.5  68.2  230.4  0.04  4.4  -80  06:17 
 9095  03/08/2026 06:12:17  28.4  28.6  26.4  29.4  68.0  229.1  0.04  4.4  -81  06:12 
 9094  03/08/2026 06:07:33  28.4  28.6  26.5  29.5  68.1  230.0  0.04  4.4  -77  06:07 
 9093  03/08/2026 06:02:50  28.5  28.6  26.5  29.5  68.2  231.4  0.04  4.4  -81  06:02 
 9092  03/08/2026 05:58:05  28.5  28.6  26.5  29.6  68.2  231.0  0.04  4.4  -79  05:58 
 9091  03/08/2026 05:53:22  28.5  28.6  26.5  29.5  68.3  229.6  0.04  4.4  -79  05:53 
 9090  03/08/2026 05:48:38  28.6  28.6  26.5  29.6  68.1  230.4  0.04  4.4  -80  05:48 
 9089  03/08/2026 05:43:54  28.5  28.7  26.4  29.7  68.0  225.8  0.04  4.4  -80  05:43 
 9088  03/08/2026 05:39:11  28.6  28.7  26.2  29.5  68.1  227.3  0.04  4.3  -77  05:39 
 9087  03/08/2026 05:34:28  28.6  28.7  26.2  29.5  68.0  232.4  0.04  4.4  -80  05:34 
 9086  03/08/2026 05:29:45  28.6  28.7  26.5  29.7  68.1  232.3  0.04  4.4  -80  05:29 
 9085  03/08/2026 05:24:59  28.6  28.8  26.4  29.7  68.2  226.5  0.04  4.4  -80  05:24 
 9084  03/08/2026 05:20:15  28.6  28.8  26.1  29.7  68.2  230.9  0.04  4.4  -79  05:20 

Data every 5 minute.


ใช้เวลาประมวลผล 0.02716 วินาที